Temp
82 97 103 97 81 84 80 86 97 92 92 100 100 97 97 98 89 79 104 105 105 99 93 88 80 80 81 81 81 80 79 79 79 79 79 79 79 80 80 80 80 81 81 81 82 81 81 81 81
95 99 99 91 78 75 81 92 92 95 99 99 101 100 97 93 101 97 99 105 105 98 92 91 80 80 80 80 80 79 79 79 79 79 79 79 79 80 80 80 81 81 81 81 81 81 81 81 81
90 98 88 83 79 74 81 93 96 97 101 97 97 102 99 94 100 101 105 104 103 98 96 89 80 79 80 80 79 79 79 79 79 79 80 79 79 79 79 80 81 81 81 82 81 81 81 81 81
93 92 90 78 76 85 87 92 95 94 97 101 99 94 102 101 100 104 103 105 101 101 99 82 79 79 79 79 79 79 79 79 79 79 79 79 79 79 79 80 80 81 81 82 81 81 81 81 80
94 90 77 76 77 85 94 97 95 92 96 98 99 94 95 99 104 103 103 104 102 102 100 90 79 79 79 79 79 79 79 79 79 79 79 79 79 79 79 79 80 80 81 81 81 80 80 80 80
83 86 74 72 79 86 90 96 95 94 96 98 97 96 96 102 102 103 105 103 106 102 96 91 81 79 79 79 79 79 78 79 79 79 79 79 79 79 79 79 80 80 80 81 80 80 79 79 79
80 80 74 78 80 84 88 96 91 92 94 95 101 93 94 100 103 104 104 105 106 103 98 91 90 85 79 78 78 78 78 78 78 78 78 78 78 79 79 79 79 80 80 80 80 79 79 79 79
85 82 76 79 79 81 94 92 91 91 92 101 99 91 80 100 103 104 105 106 105 103 100 94 92 92 89 87 78 78 78 78 78 78 78 78 78 79 79 78 79 79 79 79 79 79 79 79 78
90 75 71 76 79 84 95 91 95 96 94 95 96 95 97 81 103 102 102 103 103 102 100 98 97 94 94 93 86 79 79 78 78 79 78 78 89 86 85 84 80 79 79 79 79 79 78 78 78
81 73 75 85 87 86 92 93 92 91 88 89 92 95 97 98 100 99 99 99 100 100 101 101 98 95 96 97 90 89 89 89 88 88 85 89 91 92 93 88 79 79 79 79 78 78 78 79 91
80 72 82 85 89 90 90 91 94 90 86 91 88 91 92 94 97 98 100 101 101 101 101 102 96 94 97 98 93 92 93 92 90 89 88 88 93 93 93 93 89 87 80 89 84 85 86 90 93
76 81 83 85 88 87 85 90 88 90 92 96 95 92 94 92 87 91 90 91 101 101 100 101 97 93 94 99 96 94 95 94 92 92 89 89 91 92 92 94 95 91 94 90 92 95 93 93 93
77 80 84 86 86 87 88 83 85 87 95 97 96 89 90 91 92 95 91 92 89 99 99 99 96 92 92 93 96 96 95 95 95 94 91 92 92 91 92 93 95 96 96 96 94 94 94 93 92
82 81 82 84 84 85 82 82 85 88 94 94 92 90 90 88 91 93 93 90 81 78 97 99 96 92 92 91 93 93 94 97 96 96 94 90 92 91 93 91 92 93 96 97 96 94 93 93 93
81 74 78 79 82 80 84 76 78 88 91 90 87 91 91 90 88 89 92 93 94 79 76 95 95 94 90 89 91 92 95 95 95 96 93 91 89 90 90 92 92 93 94 93 93 92 92 91 92
74 74 67 78 79 81 80 68 81 88 87 87 89 86 90 89 88 85 89 90 94 95 93 91 99 96 90 90 91 92 94 94 95 95 95 92 90 89 89 90 92 93 93 93 90 88 84 86 92
71 63 66 71 81 78 76 70 81 88 86 84 86 88 87 89 86 81 86 87 91 93 92 91 96 96 93 90 92 91 92 93 95 96 95 92 92 91 89 91 91 91 91 91 91 92 92 90 89
64 65 67 67 76 77 74 73 79 84 84 83 86 87 88 88 87 81 85 86 89 91 90 90 92 94 94 93 90 93 94 94 94 95 95 87 92 91 89 83 85 87 84 90 92 86 88 87 87
72 69 68 72 78 75 73 73 77 82 82 83 85 86 87 88 91 85 83 88 89 90 83 85 85 88 92 92 91 91 91 93 94 95 94 86 91 89 83 79 88 87 84 88 88 87 85 85 87
70 67 67 72 77 75 73 71 77 80 81 83 84 84 86 88 90 88 79 86 87 81 82 81 83 87 89 92 91 94 94 95 95 96 89 84 86 87 83 85 90 89 89 86 84 82 82 85 87
67 66 66 66 72 75 72 69 73 79 82 84 85 86 87 87 88 89 85 81 82 79 82 83 81 84 84 87 91 90 90 92 93 93 92 88 86 85 86 88 88 88 86 87 83 82 80 81 84
62 72 70 68 65 59 70 57 68 74 76 80 83 85 86 87 88 88 88 83 81 85 84 86 83 82 83 83 85 81 82 86 91 92 93 90 85 87 88 87 87 84 86 84 86 85 82 81 79
66 74 71 69 65 64 64 56 63 72 72 77 81 83 86 88 88 87 89 87 88 87 85 82 82 80 82 82 82 83 82 89 89 90 83 86 85 87 89 87 86 84 85 83 83 82 81 82 81
75 71 70 69 67 54 62 54 56 61 64 77 81 84 84 87 85 82 85 86 85 86 83 81 80 81 83 81 81 83 83 85 88 87 85 87 88 86 85 88 85 84 83 82 83 81 79 79 79
72 65 54 50 53 52 67 59 59 60 58 76 79 78 79 81 82 82 82 82 81 81 83 80 81 79 81 82 82 81 79 79 79 81 86 85 88 89 85 84 83 84 82 82 81 80 79 79 78
68 65 56 44 47 55 66 56 64 68 70 78 79 79 79 79 80 79 79 80 82 82 82 80 78 76 79 79 77 75 77 84 84 80 80 81 83 85 83 81 81 81 82 82 81 81 80 78 79
66 62 71 58 57 54 59 65 70 74 74 75 74 75 74 75 75 76 77 77 76 76 75 76 75 74 76 75 76 75 75 74 75 74 74 77 77 79 80 78 77 78 79 78 77 80 77 78 77
69 71 57 62 42 41 52 51 61 67 69 72 71 71 73 75 76 76 76 75 76 76 75 76 77 74 74 74 73 74 75 76 74 74 73 73 73 74 74 74 74 75 76 76 76 76 77 75 76
66 60 61 62 61 49 43 46 63 66 72 71 72 73 74 74 76 76 77 78 78 79 78 75 76 76 75 75 74 73 73 72 73 72 72 72 72 72 73 73 73 73 73 74 73 73 75 74 73
70 65 58 51 46 56 55 56 67 55 75 74 74 74 76 76 77 78 77 77 77 77 77 75 74 75 75 75 73 72 72 71 69 68 69 70 70 71 71 71 71 71 72 72 72 72 73 73 73
MSLP
1010.42 1008.92 1007.54 1006.53 1005.26 1002.26 999.60 997.63 996.30 995.92 996.61 996.93 997.59 997.70 996.90 996.82 997.70 999.79 1000.87 1001.63 1002.38 1004.05 1005.75 1006.94 1007.66 1008.22 1008.67 1009.13 1009.55 1009.92 1010.39 1010.78 1011.15 1011.55 1011.88 1012.18 1012.42 1012.69 1012.95 1013.15 1013.43 1013.64 1013.82 1013.90 1013.99 1014.16 1014.28 1014.38 1014.51
1009.46 1007.96 1007.14 1005.53 1003.46 1000.70 998.37 997.41 995.81 996.44 996.51 997.78 997.97 997.59 997.56 997.32 998.35 1000.22 1000.84 1002.01 1002.65 1004.34 1005.83 1006.72 1007.82 1008.28 1008.79 1009.28 1009.74 1010.12 1010.51 1010.92 1011.33 1011.68 1012.02 1012.29 1012.65 1012.96 1013.17 1013.39 1013.49 1013.79 1013.98 1014.15 1014.20 1014.35 1014.46 1014.58 1014.75
1009.86 1008.30 1006.66 1004.35 1002.36 1000.19 997.91 996.32 995.74 996.56 996.98 997.98 997.86 997.84 997.37 998.24 999.33 1000.25 1000.84 1002.19 1003.04 1004.37 1005.48 1006.84 1007.90 1008.37 1008.81 1009.30 1009.86 1010.29 1010.66 1011.10 1011.51 1011.84 1012.08 1012.44 1012.81 1013.10 1013.32 1013.48 1013.61 1013.80 1014.06 1014.26 1014.39 1014.47 1014.61 1014.75 1014.87
1008.41 1007.40 1006.37 1003.52 1001.06 999.72 998.63 996.81 997.23 996.89 997.73 997.93 998.19 997.85 998.03 999.61 999.97 1000.39 1002.02 1002.41 1003.41 1004.16 1004.92 1007.18 1007.72 1008.31 1008.93 1009.40 1009.89 1010.39 1010.73 1011.26 1011.61 1011.92 1012.29 1012.66 1012.83 1013.10 1013.34 1013.64 1013.77 1013.97 1014.23 1014.43 1014.62 1014.74 1014.84 1014.97 1015.11
1007.57 1006.04 1004.32 1002.40 1001.05 999.74 998.12 997.51 998.01 998.09 997.66 997.45 997.87 997.90 998.26 1000.00 1000.50 1001.42 1001.96 1002.49 1003.13 1003.94 1004.96 1006.94 1007.86 1008.38 1008.93 1009.45 1009.88 1010.31 1010.83 1011.26 1011.65 1012.03 1012.44 1012.79 1012.99 1013.19 1013.47 1013.76 1013.98 1014.09 1014.33 1014.57 1014.76 1014.92 1015.02 1015.13 1015.25
1006.50 1005.56 1003.33 1001.28 1000.14 999.60 999.09 998.12 998.35 998.31 998.09 997.74 997.69 998.13 998.44 999.84 1000.64 1001.51 1002.02 1002.57 1002.94 1003.94 1005.42 1006.87 1008.19 1008.70 1009.18 1009.61 1010.10 1010.50 1010.90 1011.23 1011.64 1012.02 1012.39 1012.79 1013.11 1013.35 1013.60 1013.80 1014.12 1014.21 1014.37 1014.56 1014.76 1014.91 1015.02 1015.14 1015.22
1005.57 1004.20 1002.62 1001.31 999.77 998.63 998.49 998.59 998.97 998.93 998.39 997.97 997.81 997.59 998.73 999.31 1000.02 1001.11 1001.85 1002.53 1003.04 1004.20 1005.50 1007.03 1007.86 1008.68 1009.36 1009.86 1010.26 1010.70 1011.00 1011.30 1011.66 1011.99 1012.35 1012.65 1013.12 1013.46 1013.72 1013.85 1014.05 1014.14 1014.29 1014.50 1014.65 1014.81 1014.90 1014.96 1014.99
1005.39 1004.23 1002.32 1000.93 999.51 998.24 997.82 998.64 1000.04 1000.00 998.94 998.97 999.36 998.48 999.42 998.57 999.07 999.99 1001.26 1002.15 1003.05 1004.14 1005.29 1006.69 1007.47 1008.17 1008.93 1009.67 1010.38 1010.77 1011.10 1011.41 1011.76 1012.04 1012.44 1012.72 1013.07 1013.44 1013.75 1013.84 1014.03 1014.21 1014.35 1014.57 1014.69 1014.80 1014.88 1014.90 1014.88
1005.09 1003.84 1001.53 1000.53 999.69 998.76 998.16 998.03 999.49 1000.08 999.49 999.89 999.73 999.72 999.54 1002.42 998.69 1000.81 1000.47 1001.89 1002.84 1003.74 1004.92 1006.05 1006.87 1007.66 1008.18 1008.84 1010.01 1010.78 1011.18 1011.55 1011.80 1012.14 1012.50 1012.77 1012.50 1012.96 1013.27 1013.29 1013.61 1014.09 1014.31 1014.46 1014.60 1014.67 1014.78 1014.86 1014.81
1004.08 1002.80 1001.35 1001.09 1000.12 999.22 998.48 998.02 998.90 999.35 1000.11 1000.12 1000.45 1000.76 999.79 1000.61 1000.41 1001.03 1000.60 1001.81 1002.66 1003.48 1004.35 1005.32 1006.24 1007.18 1007.59 1008.04 1009.35 1010.14 1010.58 1011.04 1011.35 1011.53 1012.07 1011.97 1011.71 1011.86 1012.02 1012.45 1013.41 1013.87 1014.11 1014.25 1014.36 1014.48 1014.61 1014.76 1013.78
1003.52 1002.10 1001.74 1001.13 1000.35 1000.01 999.04 998.53 998.90 999.26 999.14 999.82 1000.18 1001.10 1000.91 1000.24 1000.07 1000.23 1001.17 1001.69 1002.44 1003.25 1003.93 1004.72 1006.02 1006.93 1007.17 1007.39 1008.71 1009.38 1009.70 1010.21 1010.74 1010.98 1011.33 1011.52 1011.18 1011.22 1011.74 1011.78 1012.66 1013.11 1013.66 1013.37 1013.59 1013.77 1013.89 1013.19 1012.66
1002.70 1002.22 1001.87 1001.34 1000.68 1000.50 999.95 999.77 999.15 999.10 998.58 999.26 1000.24 1002.03 1001.30 1001.70 1002.41 1002.42 1002.93 1002.96 1002.25 1003.08 1003.72 1004.45 1005.82 1006.73 1007.03 1007.05 1007.96 1008.53 1008.79 1009.32 1009.79 1010.23 1010.79 1010.97 1010.92 1010.88 1011.01 1011.17 1011.12 1011.78 1011.86 1012.26 1012.17 1011.79 1011.84 1011.96 1012.07
1002.09 1001.82 1001.50 1001.53 1001.35 1000.80 1000.57 1000.68 1000.33 999.69 999.23 999.37 1000.55 1002.46 1002.02 1002.00 1002.64 1003.10 1003.65 1003.78 1003.80 1002.61 1003.34 1003.90 1005.21 1006.42 1007.06 1007.18 1007.42 1007.84 1008.19 1008.67 1008.83 1009.41 1010.21 1010.46 1010.60 1010.51 1010.72 1010.74 1010.73 1010.57 1010.88 1011.00 1011.40 1011.35 1011.45 1011.50 1011.65
1001.88 1001.85 1001.63 1001.49 1001.24 1001.28 1001.03 1001.06 1001.00 1000.25 999.85 999.44 1000.37 1001.45 1001.97 1002.50 1002.46 1003.48 1004.04 1004.45 1004.52 1004.56 1002.72 1003.03 1004.06 1005.80 1006.70 1007.16 1007.27 1007.74 1008.00 1007.89 1008.45 1008.67 1009.24 1010.27 1010.15 1010.13 1010.27 1010.63 1010.74 1010.76 1010.55 1010.47 1010.50 1010.71 1010.94 1011.01 1011.05
1002.07 1001.71 1001.49 1001.55 1001.07 1001.11 1001.48 1000.99 1000.10 1000.24 1000.20 999.56 999.90 1000.50 1001.58 1002.25 1002.92 1003.60 1004.24 1004.24 1004.16 1005.21 1002.33 1002.80 1004.20 1004.97 1006.29 1006.95 1007.35 1007.60 1007.67 1008.01 1008.18 1008.35 1008.87 1009.57 1010.15 1010.00 1010.33 1010.25 1010.33 1010.35 1010.39 1010.63 1010.72 1010.89 1010.98 1011.12 1011.02
1002.03 1001.87 1000.81 1000.63 1000.99 1001.12 1001.42 999.05 999.90 1000.28 1000.17 999.68 999.74 1000.51 1000.79 1001.73 1003.15 1003.28 1005.25 1005.26 1003.84 1003.67 1002.47 1003.64 1003.48 1004.16 1006.00 1006.74 1007.25 1007.37 1007.48 1007.76 1007.83 1007.92 1008.28 1009.10 1009.64 1010.04 1010.20 1010.27 1009.99 1009.97 1010.07 1010.07 1010.29 1010.37 1010.29 1010.25 1009.95
1001.21 1000.25 1000.09 1000.00 1000.01 1000.46 1000.50 999.50 999.78 999.37 999.31 999.36 999.68 999.87 1000.54 1000.80 1002.78 1003.59 1005.02 1005.81 1004.82 1003.66 1004.06 1003.86 1003.06 1003.90 1005.23 1006.59 1006.88 1007.22 1007.28 1007.56 1007.45 1007.44 1007.68 1008.23 1008.93 1009.36 1009.94 1009.92 1009.90 1009.94 1009.98 1009.92 1010.05 1009.90 1009.94 1009.96 1010.15
999.38 999.50 999.62 999.15 999.21 999.46 999.17 998.85 999.40 999.23 999.22 998.97 998.97 999.40 999.64 1000.07 1001.64 1003.24 1003.83 1005.34 1005.28 1004.92 1004.87 1004.65 1004.33 1004.52 1004.95 1005.80 1006.62 1006.55 1006.78 1007.05 1007.26 1007.09 1007.20 1007.81 1008.30 1008.87 1009.44 1010.00 1009.96 1010.08 1010.67 1010.08 1009.57 1010.45 1010.62 1010.47 1010.45
999.21 998.98 998.60 998.58 998.49 998.52 998.27 998.22 998.59 998.62 998.90 998.50 997.92 998.18 998.69 999.31 1000.24 1002.21 1003.41 1004.79 1004.73 1004.70 1005.22 1005.25 1005.34 1005.38 1005.14 1005.43 1005.78 1006.07 1006.02 1006.33 1006.70 1006.79 1006.91 1007.46 1007.97 1008.95 1009.92 1009.89 1009.38 1010.05 1010.54 1009.80 1010.00 1010.22 1010.33 1010.39 1010.17
999.62 999.07 998.66 998.47 998.19 998.16 998.01 997.77 997.81 997.97 997.74 997.68 997.55 998.06 998.33 998.86 999.36 1000.73 1002.78 1004.10 1004.35 1005.09 1005.37 1005.35 1005.81 1005.73 1005.33 1005.40 1005.67 1005.43 1005.57 1005.65 1005.95 1006.08 1006.81 1007.50 1008.08 1008.65 1009.25 1009.42 1008.84 1009.08 1009.43 1009.90 1010.44 1010.74 1010.56 1010.18 1010.04
999.30 999.02 998.85 998.45 997.98 998.02 997.53 996.97 996.68 997.02 997.10 996.90 997.01 997.74 997.98 998.21 998.68 999.40 1000.88 1002.83 1003.82 1004.65 1004.87 1005.52 1005.41 1005.66 1005.92 1005.98 1005.83 1006.03 1006.09 1005.88 1005.68 1005.95 1006.63 1007.41 1007.93 1008.39 1008.87 1008.79 1008.95 1009.08 1009.65 1009.56 1009.97 1010.36 1010.45 1010.10 1009.86
998.53 999.09 999.16 998.82 998.45 997.39 997.81 996.48 995.91 996.18 996.06 996.00 996.22 996.59 997.18 997.82 998.31 999.00 999.88 1002.17 1003.64 1004.02 1005.00 1005.67 1005.87 1005.65 1005.93 1006.23 1006.02 1006.41 1006.37 1005.87 1005.72 1005.92 1006.01 1006.74 1007.84 1008.01 1008.18 1008.69 1009.03 1009.38 1009.40 1009.37 1009.40 1009.86 1010.13 1009.97 1009.61
998.26 998.36 998.51 998.81 998.60 998.30 997.58 998.12 996.70 996.36 995.66 995.45 995.70 996.36 996.91 997.45 997.36 998.18 999.30 1001.13 1002.47 1003.45 1004.45 1005.41 1005.86 1005.75 1005.89 1006.27 1006.66 1006.84 1006.82 1005.78 1005.84 1005.86 1006.59 1007.04 1007.78 1008.08 1008.28 1008.69 1008.99 1009.18 1009.40 1009.40 1009.47 1009.59 1009.70 1009.61 1009.36
998.33 998.26 998.25 998.38 998.21 997.78 997.19 998.39 998.08 997.83 997.22 995.37 995.59 996.19 996.88 997.32 997.67 998.69 1000.50 1001.18 1002.00 1003.24 1004.44 1005.93 1006.29 1006.24 1005.95 1006.62 1006.72 1006.47 1006.27 1006.03 1005.82 1006.30 1006.86 1007.27 1007.56 1008.03 1008.43 1008.55 1008.82 1008.96 1009.17 1009.34 1009.42 1009.46 1009.42 1009.47 1009.29
997.73 997.75 997.57 997.82 997.17 996.87 996.80 997.58 997.34 999.33 999.37 995.60 995.64 997.53 998.66 999.01 999.44 1000.00 1000.97 1001.55 1002.07 1003.56 1004.79 1005.79 1006.27 1006.52 1006.52 1006.29 1006.56 1007.12 1007.18 1007.02 1007.08 1007.23 1007.05 1007.18 1006.91 1007.01 1007.53 1008.26 1008.62 1008.72 1008.91 1009.11 1009.18 1009.01 1008.96 1008.94 1008.96
996.50 996.77 996.26 996.21 996.10 995.97 996.20 996.78 996.69 997.89 998.35 997.83 997.96 998.85 999.63 1000.11 1000.62 1001.42 1002.25 1002.49 1003.11 1003.85 1004.89 1005.87 1006.52 1007.11 1007.24 1007.42 1007.72 1007.89 1007.88 1007.06 1007.21 1007.71 1007.97 1008.10 1007.83 1007.74 1008.01 1008.39 1008.54 1008.63 1008.71 1008.72 1008.54 1008.44 1008.37 1008.33 1008.28
995.85 996.03 995.95 996.03 997.45 997.16 996.87 996.78 997.52 997.65 998.32 998.47 999.06 999.88 1000.70 1001.39 1001.93 1002.45 1003.24 1003.75 1004.91 1005.59 1006.29 1006.68 1007.40 1007.85 1007.97 1008.04 1008.07 1008.47 1008.46 1008.50 1008.55 1008.85 1009.03 1008.67 1008.67 1008.73 1008.52 1008.75 1008.46 1008.56 1008.37 1008.41 1008.37 1007.92 1007.73 1007.60 1007.70
995.95 996.79 996.64 996.34 997.49 997.55 997.41 997.54 996.02 996.92 997.68 998.61 999.51 1000.22 1001.33 1002.07 1002.70 1003.54 1004.20 1004.94 1005.55 1006.23 1006.79 1007.26 1007.56 1008.02 1008.25 1008.29 1008.33 1008.54 1008.52 1008.57 1008.84 1008.90 1008.95 1009.00 1008.97 1008.83 1008.77 1008.70 1008.40 1008.45 1008.33 1008.15 1007.97 1007.43 1007.01 1006.88 1007.04
996.07 996.79 997.87 997.26 996.90 997.31 998.00 998.57 999.43 997.87 996.77 998.09 999.31 1000.55 1001.53 1002.44 1003.10 1003.76 1004.35 1004.88 1005.24 1005.70 1006.52 1007.49 1007.67 1007.69 1008.03 1008.22 1008.70 1008.66 1008.87 1008.92 1008.56 1008.87 1008.91 1008.89 1008.93 1008.70 1008.62 1008.37 1008.29 1008.39 1008.13 1007.89 1007.60 1007.04 1006.47 1006.20 1006.32
995.91 996.28 998.05 998.01 998.72 998.59 998.29 998.04 999.24 999.74 997.24 998.30 999.46 1000.68 1001.84 1002.62 1003.33 1004.00 1004.82 1005.33 1005.86 1006.25 1006.50 1007.25 1007.74 1007.68 1008.08 1008.26 1008.27 1008.38 1008.63 1008.74 1008.86 1008.94 1009.21 1009.06 1008.88 1008.58 1008.39 1008.47 1008.31 1008.27 1007.72 1007.31 1006.93 1006.37 1006.18 1005.81 1005.28
Wind_Speed
16 17 11 9 9 10 18 19 20 2 2 3 4 8 16 8 16 7 12 9 18 20 19 18 15 14 13 13 14 15 15 15 15 14 14 13 12 12 12 11 10 10 9 9 9 8 8 8 8
13 11 10 9 12 16 15 20 14 10 6 5 10 9 9 4 17 11 14 16 20 20 18 18 16 16 15 13 14 15 16 15 15 15 14 14 12 12 12 10 10 9 8 8 8 7 7 7 7
13 15 10 11 16 18 18 16 16 9 8 6 8 5 5 7 7 12 16 18 20 19 19 18 17 16 16 15 15 15 16 15 15 15 14 14 13 12 11 10 10 9 8 7 7 7 6 6 6
9 10 10 15 22 23 26 18 14 4 5 11 5 7 7 7 2 8 17 19 19 19 20 20 19 18 16 16 16 15 15 15 15 14 14 14 14 12 11 9 9 8 6 5 5 5 4 3 3
12 11 16 19 25 26 19 21 9 10 13 7 9 11 3 8 7 15 17 17 17 18 19 19 17 18 18 17 17 17 16 15 15 15 14 13 12 11 10 9 8 7 5 4 4 4 3 2 2
12 13 19 22 26 24 23 13 14 13 16 10 10 12 2 15 13 13 16 16 17 17 19 19 15 15 15 16 15 15 15 15 15 15 14 12 11 10 10 9 7 6 5 5 5 5 4 3 3
20 17 22 25 25 24 21 17 12 12 16 11 13 11 13 14 18 13 15 15 16 17 17 17 17 15 14 13 14 14 14 14 14 14 13 12 11 10 9 9 8 8 7 7 7 7 7 7 7
16 17 27 25 23 27 20 17 10 18 17 8 6 9 2 12 20 17 15 15 16 15 17 16 16 16 15 14 12 13 13 13 12 12 11 11 10 10 10 8 8 8 7 7 7 7 7 8 9
20 18 22 28 27 23 22 13 14 20 13 6 1 8 7 9 16 13 14 15 14 14 17 16 16 16 15 15 13 11 11 11 11 11 11 11 10 12 13 11 12 10 8 8 8 8 8 9 10
21 19 29 22 24 21 24 19 12 17 14 9 7 5 2 8 10 12 12 13 15 15 16 16 16 15 15 13 14 13 12 11 11 12 13 11 11 11 11 12 14 11 10 9 9 10 10 10 10
22 24 21 24 25 20 24 19 11 23 21 17 12 7 4 8 3 8 10 13 15 15 13 16 13 14 15 12 11 8 8 8 9 13 12 11 9 9 8 7 8 8 12 8 12 10 9 12 10
25 24 23 23 21 23 21 18 21 20 20 17 12 6 6 10 4 6 9 15 15 15 14 15 15 13 12 9 10 11 9 10 9 11 12 8 7 7 7 7 9 8 8 10 9 8 9 9 8
21 22 19 20 23 22 15 22 22 24 24 11 15 10 9 10 6 5 6 11 14 15 16 16 17 13 10 8 9 9 9 10 10 11 12 10 10 7 8 7 7 7 9 9 8 8 7 8 11
20 18 19 20 20 23 22 22 25 26 27 17 18 16 13 9 6 3 4 4 10 11 15 17 17 15 14 11 8 8 8 8 9 9 11 14 9 6 8 8 8 8 7 7 7 8 7 8 9
17 21 17 20 20 20 23 27 32 22 24 25 13 19 17 10 9 2 12 9 12 7 32 13 13 16 14 14 11 8 9 10 10 9 10 13 11 8 8 8 8 8 7 8 7 7 7 8 9
16 21 20 20 21 19 20 27 27 28 27 29 22 16 20 19 14 8 10 18 16 10 12 14 11 15 14 12 11 10 10 10 10 10 9 13 12 11 9 8 8 8 7 8 7 6 5 7 8
18 17 22 20 20 20 26 30 24 25 26 24 27 19 19 16 16 7 7 14 16 14 10 9 7 11 15 13 11 11 10 10 9 9 9 12 13 13 10 8 8 7 7 6 7 7 7 7 8
17 19 17 19 18 22 26 27 25 26 25 27 25 24 21 22 19 15 14 11 12 12 8 8 9 9 8 10 10 9 9 9 10 10 10 7 10 12 8 6 8 4 5 10 7 6 8 8 9
18 14 18 14 17 20 22 25 23 24 24 30 25 21 22 23 19 19 13 12 15 5 4 6 7 10 7 9 9 10 10 10 9 10 10 5 8 9 10 9 11 7 10 7 5 6 7 8 8
19 16 13 14 13 18 21 24 23 23 26 30 21 20 23 22 23 21 12 14 10 4 2 6 7 8 8 7 6 7 8 9 9 10 7 5 9 11 9 10 10 8 6 7 6 6 7 8 8
20 19 15 16 11 15 17 23 20 22 26 28 26 25 28 22 23 20 24 17 15 1 5 7 11 4 4 9 4 5 7 6 7 7 8 8 7 9 10 13 7 4 5 7 8 7 8 8 7
20 18 16 17 16 14 6 14 21 24 24 26 25 24 19 19 20 22 25 27 12 3 5 11 8 5 5 5 3 3 5 6 6 7 7 10 12 13 10 8 8 6 6 7 6 6 7 6 8
17 17 20 16 17 19 6 6 22 12 23 25 18 21 21 18 13 22 23 19 12 8 3 7 6 5 5 5 7 9 10 8 3 5 7 3 6 8 9 9 8 7 7 8 6 6 6 7 8
20 17 15 15 15 16 20 7 8 7 13 18 20 15 1 10 7 13 10 13 10 10 8 4 8 11 11 10 12 8 8 5 3 5 6 7 7 8 8 9 7 7 7 8 8 8 9 9 8
19 16 13 13 15 15 19 16 9 5 12 19 17 9 5 3 6 5 13 11 11 10 12 10 11 7 7 9 7 4 4 3 3 1 4 4 5 6 7 9 7 8 8 10 10 9 10 10 10
20 20 15 21 13 15 17 13 11 18 15 13 13 12 10 11 10 14 12 13 12 14 13 12 9 9 6 7 7 6 4 2 1 7 6 5 6 7 8 8 8 9 11 11 10 10 11 12 11
18 21 23 18 12 8 9 15 12 14 16 16 16 15 13 14 12 14 13 14 13 13 12 12 11 7 7 8 6 6 5 5 4 5 4 4 4 7 8 10 10 11 11 12 13 12 13 13 13
17 14 13 12 9 12 7 8 5 22 20 18 17 16 14 14 15 14 14 14 13 13 11 10 9 9 8 6 5 6 5 5 5 4 6 7 7 9 10 12 12 12 13 13 14 14 15 16 14
18 12 11 17 8 12 7 5 7 13 20 19 18 17 15 14 13 13 12 12 12 11 11 8 7 7 7 7 6 6 6 7 7 8 9 9 10 11 13 13 14 15 15 14 14 15 17 18 18
17 11 15 10 8 10 10 5 11 20 18 17 18 16 14 14 13 13 11 10 9 9 9 9 7 8 8 8 7 8 9 9 7 8 9 11 13 13 14 16 17 17 17 15 15 17 17 19 19
Wind_Direction
272 252 257 262 248 232 255 242 252 124 207 163 340 278 333 10 33 70 121 135 136 130 146 150 131 133 134 141 148 144 143 146 147 148 146 141 135 135 134 132 130 128 129 127 124 127 130 131 131
277 282 255 270 246 250 237 243 238 243 263 58 275 249 254 357 83 126 124 143 140 136 146 149 133 132 133 134 140 143 144 147 150 148 146 139 139 141 139 137 135 133 134 135 134 137 139 139 142
255 261 269 237 237 246 257 228 233 196 236 264 275 251 314 42 77 148 122 147 134 143 153 136 135 133 136 136 141 145 144 147 148 146 143 145 146 146 145 147 146 146 148 149 151 151 153 157 161
227 229 245 257 245 232 253 271 316 286 244 237 270 284 105 49 108 115 143 150 141 148 149 141 142 140 142 142 142 142 142 146 145 145 147 153 152 152 151 152 150 151 153 155 157 161 168 177 181
226 253 233 235 238 257 253 250 168 239 258 227 214 254 141 104 85 123 149 150 158 150 138 153 146 144 145 148 148 145 147 147 148 149 154 158 156 154 151 151 155 153 153 155 164 168 192 227 246
217 230 242 238 240 233 251 261 265 265 273 257 255 243 227 121 131 145 153 156 156 147 133 147 145 142 142 145 147 147 149 149 152 154 158 158 158 156 156 156 161 154 161 171 178 183 198 218 237
235 225 235 244 250 240 221 245 246 275 260 262 306 248 119 155 138 150 158 164 147 147 143 153 162 150 140 145 149 152 153 154 156 157 159 156 159 159 163 165 174 178 179 185 190 195 202 213 220
230 248 245 239 247 249 235 165 216 261 267 28 313 247 31 155 149 148 164 165 152 155 144 158 163 166 171 164 152 154 155 156 156 158 158 158 160 167 179 175 190 193 192 198 205 210 216 222 228
220 242 239 241 238 249 255 196 203 226 261 236 140 355 319 167 127 154 155 167 161 166 148 163 167 167 176 169 163 154 158 159 158 161 165 162 192 182 179 199 169 186 200 208 217 222 228 234 238
225 229 238 243 253 257 257 250 215 233 202 199 206 36 333 123 150 171 165 175 174 175 160 160 171 167 179 167 156 183 177 188 191 187 179 202 206 184 207 182 164 185 203 218 222 225 230 235 253
212 242 243 242 260 257 267 246 219 236 207 217 205 108 27 15 174 185 189 183 183 177 170 160 173 166 188 175 158 185 181 189 193 194 180 213 197 192 197 179 184 208 202 225 205 210 227 236 244
229 235 241 261 263 247 264 277 256 243 246 228 142 136 82 128 341 328 317 329 175 175 179 169 174 172 205 182 171 186 191 191 191 195 188 202 224 201 214 213 212 187 195 214 231 227 219 238 255
237 247 243 243 248 255 252 245 255 257 255 187 167 163 137 110 74 73 314 319 321 180 181 182 169 176 192 221 182 196 204 189 195 187 191 210 210 204 202 228 238 223 208 210 225 236 244 241 235
235 242 249 257 234 242 244 239 241 243 255 205 191 187 189 166 115 15 330 310 308 297 185 178 172 174 189 207 217 203 200 199 213 199 195 210 219 205 220 213 225 244 247 254 245 235 247 241 249
251 259 230 239 249 236 237 239 244 246 248 247 217 213 207 179 176 44 321 317 281 155 269 165 183 174 194 196 208 204 210 229 200 221 199 194 216 225 225 228 222 228 232 250 263 272 256 254 253
242 238 246 233 231 237 254 249 231 240 237 245 243 221 239 175 212 129 308 306 309 325 338 314 189 181 188 203 200 214 217 206 232 212 204 209 208 228 205 242 240 232 233 227 227 238 238 233 248
226 235 231 245 236 219 226 247 252 251 226 240 240 234 235 199 208 188 215 281 327 333 327 290 239 225 182 204 213 210 216 226 218 224 213 190 209 211 228 225 231 227 238 250 247 265 284 283 298
228 218 237 256 218 233 237 243 243 247 246 243 229 241 236 223 205 187 186 272 299 301 310 287 300 219 217 193 212 223 218 219 233 227 222 178 201 212 201 244 247 226 245 249 234 219 274 309 307
268 242 240 241 251 241 246 238 249 238 237 245 240 230 229 237 199 195 177 231 284 323 333 291 273 278 213 203 211 215 219 216 222 233 219 161 197 207 210 234 213 203 235 261 301 280 261 261 266
242 252 256 260 252 246 246 246 242 245 235 242 233 240 243 234 243 197 158 231 266 80 324 247 261 239 226 222 241 249 223 222 221 221 146 164 202 204 199 225 253 192 235 204 236 252 273 278 279
224 239 244 261 260 270 257 262 237 232 240 237 222 228 241 230 239 213 191 214 260 131 29 322 292 235 231 255 240 236 283 256 188 219 189 191 207 204 214 219 240 230 229 255 195 222 242 267 285
220 220 248 263 272 267 298 279 225 229 229 228 228 225 227 232 237 225 191 189 195 193 160 275 238 238 202 224 274 259 268 218 218 228 208 178 198 209 209 221 214 226 246 235 229 219 250 256 267
231 225 219 232 254 268 231 233 282 254 217 217 207 217 219 231 235 213 198 177 178 160 233 265 201 206 217 189 248 205 231 218 183 242 107 176 192 215 217 214 229 229 225 254 250 271 226 252 258
219 238 249 231 237 247 255 182 243 256 303 217 192 201 305 259 170 149 137 145 156 171 160 214 211 217 198 193 219 225 257 291 179 200 168 196 207 194 230 239 223 239 246 250 260 233 242 249 270
216 222 223 226 229 238 251 196 138 124 313 239 113 114 130 140 123 155 157 164 126 161 174 172 199 177 178 164 137 143 98 83 120 257 225 297 258 232 195 201 224 250 235 245 264 255 248 250 247
208 216 227 215 219 227 211 263 136 166 215 106 101 104 112 102 104 99 93 109 114 127 153 126 132 148 145 107 95 65 30 96 261 66 5 314 321 313 342 325 305 289 272 266 264 251 250 253 242
204 218 236 256 306 250 271 150 152 146 145 133 126 119 114 108 109 100 100 98 105 104 96 100 106 83 111 97 94 78 67 57 42 17 336 289 323 303 301 317 301 287 279 272 275 267 258 255 249
242 247 248 242 193 280 224 318 157 163 154 137 133 123 120 118 113 109 110 116 115 109 100 99 106 102 88 74 47 49 17 24 360 332 312 309 305 297 292 293 290 285 281 276 268 264 259 253 253
223 179 255 267 294 252 144 227 257 268 147 145 134 132 133 129 120 112 107 102 93 94 93 89 76 78 60 48 21 18 357 347 341 329 319 315 308 301 292 289 287 280 273 269 268 270 272 269 264
255 279 190 234 253 280 295 130 139 298 134 130 131 130 125 120 118 110 107 99 93 77 70 64 34 32 22 7 1 353 341 337 334 322 312 306 300 299 295 288 281 277 276 276 274 273 273 273 271